[[{"header":{"parameterUnit":"m.s-1","parameterCategory":1,"la1":30.2991,"la2":30.254,"lo1":-89.0895,"lo2":-89.0444,"dy":0.0017,"dx":0.0017,"nx":28,"ny":28,"refTime":"2025-09-19T03:00:00:Z","depth":0,"parameterNumber":2,"parameterNumberName":"U-component_of_WINDS"},"data":[0,0,0,0,0,0,0,0,0,0,0,0,0,0,0,0,0,0,0,0,0,0,0,0,0,0,0,0,0,0,0,0,0,0,0,0,0,0,0,0,0,0,0,0,0,0,0,0,0,0,0,0,0,0,0,0,0,0,-0.1846,-0.1846,0,-0.1807,-0.1806,-0.1806,-0.1782,-0.1782,-0.1782,-0.1782,-0.1741,-0.1741,-0.174,0,0,0,0,0,0,0,0,0,0,0,0,0,-0.1901,-0.19,-0.1846,-0.1846,-0.1845,-0.1807,-0.1806,-0.1806,-0.1782,-0.1782,-0.1782,-0.1782,-0.1742,-0.1741,-0.174,0,0,0,0,0,0,0,0,0,0,0,0,0,-0.1871,-0.19,-0.1846,-0.1829,-0.1827,-0.1807,-0.1806,-0.1806,-0.1782,-0.1782,-0.1782,-0.1782,-0.1742,-0.1741,-0.1739,-0.1734,0,0,-0.1735,-0.1734,0,0,0,0,0,0,0,0,-0.1873,-0.1869,-0.1832,-0.183,-0.1828,-0.1799,-0.1811,-0.1781,-0.1782,-0.1799,-0.1782,-0.1782,-0.1761,-0.1758,-0.1751,-0.1732,-0.173,-0.1735,-0.1734,-0.1733,-0.1733,0,0,0,0,0,0,0,-0.1875,-0.1871,-0.183,-0.1831,-0.1829,-0.1823,-0.1818,-0.1805,-0.1781,-0.1798,-0.1796,-0.1791,-0.176,-0.1752,-0.175,-0.173,-0.1735,-0.1734,-0.1733,-0.1732,-0.1704,-0.1704,0,0,0,0,0,0,-0.188,-0.1872,-0.1832,-0.1829,-0.185,-0.1822,-0.1817,-0.1808,-0.1781,-0.1777,-0.1792,-0.1791,-0.1755,-0.1751,-0.1748,-0.174,-0.1733,-0.1732,-0.1731,-0.1704,-0.1704,-0.1704,0,0,0,0,0,0,-0.1881,-0.1876,-0.1833,-0.185,-0.1844,-0.1821,-0.1812,-0.1808,-0.18,-0.1777,-0.1773,-0.1788,-0.1755,-0.175,-0.1737,-0.1738,-0.1731,-0.173,-0.1704,-0.1704,-0.1704,-0.1723,0,0,0,0,0,0,-0.1883,-0.1877,-0.1874,-0.185,-0.1844,-0.1823,-0.1812,-0.1807,-0.1798,-0.1796,-0.1773,-0.1769,-0.1754,-0.174,-0.1736,-0.1736,-0.1729,-0.1703,-0.1704,-0.1704,-0.1723,-0.1724,-0.1726,0,0,0,0,0,-0.1885,-0.1882,-0.1874,-0.187,-0.184,-0.1824,-0.182,-0.1803,-0.1798,-0.1796,-0.178,-0.177,-0.1739,-0.1739,-0.1734,-0.1734,-0.1703,-0.1704,-0.1704,-0.1722,-0.1724,-0.1726,0,0,0,0,0,0,-0.1906,-0.1878,-0.187,-0.1859,-0.1844,-0.182,-0.1816,-0.1805,-0.1791,-0.179,-0.177,-0.1765,-0.1754,-0.1742,-0.1743,-0.1727,-0.172,-0.1719,-0.1735,-0.1737,-0.1738,-0.1741,-0.1728,0,0,0,0,0,-0.191,-0.1899,-0.1874,-0.1867,-0.186,-0.1839,-0.1831,-0.182,-0.1803,-0.1797,-0.1781,-0.1765,-0.1752,-0.1743,-0.173,-0.1721,-0.1715,-0.1718,-0.172,-0.1721,-0.1721,-0.1715,-0.1716,-0.1705,-0.1705,-0.1705,0,0,-0.1917,-0.19,-0.1894,-0.1871,-0.1858,-0.1847,-0.1834,-0.1823,-0.1814,-0.1795,-0.1782,-0.177,-0.1751,-0.174,-0.1734,-0.173,-0.1723,-0.1721,-0.1723,-0.1722,-0.1716,-0.1717,-0.1718,-0.1705,-0.1705,-0.1705,0,0,-0.1925,-0.1911,-0.1903,-0.189,-0.187,-0.1856,-0.1855,-0.1832,-0.1823,-0.181,-0.1795,-0.1784,-0.1762,-0.1749,-0.174,-0.1742,-0.1732,-0.1738,-0.1746,-0.1741,-0.1742,-0.1743,-0.1744,-0.1744,-0.1738,-0.1738,-0.1738,0,-0.1936,-0.1919,-0.1901,-0.189,-0.188,-0.1862,-0.1854,-0.1842,-0.1819,-0.1813,-0.1809,-0.178,-0.1766,-0.1752,-0.1752,-0.1745,-0.1743,-0.1741,-0.1743,-0.1744,-0.1744,-0.1745,-0.1745,-0.1739,-0.1739,-0.1739,-0.1739,0,-0.1934,-0.1922,-0.1918,-0.1897,-0.1886,-0.1877,-0.1858,-0.1849,-0.1838,-0.1825,-0.1812,-0.1794,-0.1777,-0.1773,-0.1762,-0.1757,-0.1755,-0.1747,-0.1739,-0.1746,-0.1747,-0.1747,-0.174,-0.174,-0.174,-0.174,0,0,-0.1955,-0.1923,-0.1922,-0.1911,-0.1888,-0.1878,-0.1868,-0.1851,-0.1845,-0.1829,-0.1821,-0.1802,-0.1795,-0.1784,-0.1771,-0.1767,-0.177,-0.1759,-0.1759,-0.1762,-0.1763,-0.177,-0.1771,-0.1763,-0.1763,-0.1763,-0.1765,0,-0.196,-0.1941,-0.1924,-0.1911,-0.19,-0.1882,-0.1873,-0.1858,-0.1845,-0.1834,-0.182,-0.1807,-0.1798,-0.1791,-0.1786,-0.1771,-0.177,-0.177,-0.1754,-0.1754,-0.176,-0.1771,-0.1777,-0.1781,-0.1765,-0.1765,-0.1765,0,-0.1962,-0.1948,-0.1934,-0.1911,-0.1906,-0.1898,-0.1881,-0.1871,-0.1853,-0.1844,-0.1832,-0.1819,-0.1807,-0.1801,-0.1785,-0.1785,-0.1778,-0.1769,-0.1769,-0.1767,-0.176,-0.177,-0.1781,-0.1782,-0.1765,-0.1765,-0.1765,0,-0.198,-0.1956,-0.1945,-0.1936,-0.191,-0.1905,-0.1894,-0.1876,-0.1866,-0.1851,-0.1845,-0.1829,-0.182,-0.1808,-0.1791,-0.1788,-0.1777,-0.1769,-0.1769,-0.177,-0.1768,-0.1769,-0.178,-0.1763,-0.1763,-0.1763,-0.1763,0,-0.1987,-0.1979,-0.1952,-0.1945,-0.1936,-0.1916,-0.1908,-0.1895,-0.1879,-0.1869,-0.1853,-0.1844,-0.1822,-0.181,-0.1797,-0.1786,-0.1782,-0.1774,-0.1771,-0.1776,-0.1777,-0.1771,-0.1771,-0.1763,-0.1763,-0.1763,-0.1763,0,-0.2005,-0.1986,-0.1973,-0.1948,-0.1942,-0.1936,-0.1915,-0.1908,-0.1894,-0.1882,-0.1878,-0.1856,-0.1842,-0.1823,-0.1803,-0.1794,-0.1785,-0.1779,-0.1791,-0.1789,-0.1791,-0.1791,-0.1798,-0.1799,-0.1782,-0.1782,-0.1782,0,-0.2011,-0.2004,-0.1979,-0.1971,-0.196,-0.1948,-0.1939,-0.1919,-0.1909,-0.1888,-0.1884,-0.1868,-0.1855,-0.1833,-0.1815,-0.1799,-0.1794,-0.1797,-0.1791,-0.1797,-0.1794,-0.1795,-0.1794,-0.1799,-0.1799,-0.18,-0.18,0,-0.2024,-0.2015,-0.2001,-0.1985,-0.1974,-0.196,-0.1945,-0.194,-0.1917,-0.1907,-0.1892,-0.1882,-0.1861,-0.1846,-0.1828,-0.1816,-0.1804,-0.1802,-0.1801,-0.1807,-0.1814,-0.181,-0.1796,-0.1802,-0.1801,-0.1801,-0.1801,-0.1801,-0.2036,-0.203,-0.2011,-0.1996,-0.1983,-0.197,-0.1962,-0.1946,-0.1933,-0.1915,-0.1904,-0.1889,-0.1871,-0.1846,-0.1835,-0.1823,-0.1819,-0.1818,-0.1818,-0.1818,-0.182,-0.1815,-0.182,-0.182,-0.182,-0.182,-0.182,0,-0.2049,-0.2035,-0.2022,-0.2002,-0.1991,-0.198,-0.1963,-0.1954,-0.1942,-0.1926,-0.1913,-0.1896,-0.188,-0.1861,-0.1845,-0.184,-0.1834,-0.1836,-0.1836,-0.1834,-0.1824,-0.1827,-0.1841,-0.1841,-0.1841,-0.1841,-0.1841,-0.1841,-0.2054,-0.2042,-0.2031,-0.2013,-0.1999,-0.1985,-0.1976,-0.1964,-0.1951,-0.1932,-0.192,-0.1907,-0.189,-0.1872,-0.1858,-0.1853,-0.1848,-0.1852,-0.1845,-0.1836,-0.1835,-0.1833,-0.1835,-0.1851,-0.1851,-0.1855,-0.1855,-0.1855]},{"header":{"parameterUnit":"m.s-1","parameterCategory":1,"la1":30.2991,"la2":30.254,"lo1":-89.0895,"lo2":-89.0444,"dy":0.0017,"dx":0.0017,"nx":28,"ny":28,"refTime":"2025-09-19T03:00:00:Z","depth":0,"parameterNumber":3,"parameterNumberName":"V-component_of_WINDS"},"data":[0,0,0,0,0,0,0,0,0,0,0,0,0,0,0,0,0,0,0,0,0,0,0,0,0,0,0,0,0,0,0,0,0,0,0,0,0,0,0,0,0,0,0,0,0,0,0,0,0,0,0,0,0,0,0,0,0,0,2.8735,2.8735,0,2.8742,2.8742,2.8742,2.8722,2.8722,2.8721,2.8721,2.8727,2.8727,2.8728,0,0,0,0,0,0,0,0,0,0,0,0,0,2.8703,2.8704,2.8735,2.8735,2.8735,2.8742,2.8742,2.8742,2.8723,2.8722,2.8721,2.872,2.8726,2.8727,2.8728,0,0,0,0,0,0,0,0,0,0,0,0,0,2.8714,2.8704,2.8735,2.8726,2.8725,2.8742,2.8742,2.8742,2.8723,2.8722,2.8721,2.872,2.8726,2.8727,2.8728,2.8753,0,0,2.8732,2.8732,0,0,0,0,0,0,0,0,2.8713,2.8715,2.8727,2.8727,2.8726,2.873,2.8733,2.8746,2.8723,2.8724,2.8721,2.872,2.8729,2.8729,2.8733,2.8753,2.8754,2.8732,2.8732,2.8733,2.8733,0,0,0,0,0,0,0,2.8713,2.8715,2.8737,2.8727,2.8727,2.8721,2.8722,2.8735,2.8731,2.8724,2.8722,2.8723,2.8728,2.8732,2.8733,2.8754,2.8732,2.8733,2.8733,2.8734,2.8796,2.8796,0,0,0,0,0,0,2.8713,2.8714,2.8737,2.8738,2.8717,2.8723,2.8723,2.873,2.8731,2.873,2.8724,2.8722,2.873,2.8731,2.8733,2.8762,2.8733,2.8734,2.8734,2.8795,2.8796,2.8797,0,0,0,0,0,0,2.8713,2.8715,2.8737,2.8726,2.8728,2.8724,2.8732,2.873,2.8734,2.8731,2.873,2.8729,2.873,2.8731,2.8748,2.8762,2.8734,2.8735,2.8793,2.8795,2.8796,2.8821,0,0,0,0,0,0,2.8712,2.8715,2.8725,2.8726,2.8729,2.8753,2.8732,2.8731,2.8736,2.8734,2.8735,2.8735,2.8729,2.8747,2.8749,2.8763,2.8736,2.8792,2.8794,2.8796,2.8819,2.8823,2.8827,0,0,0,0,0,2.8711,2.8731,2.8725,2.8728,2.874,2.8753,2.8755,2.8748,2.8737,2.8747,2.8745,2.8735,2.876,2.8749,2.8751,2.8766,2.8791,2.8793,2.8796,2.8817,2.8822,2.8827,0,0,0,0,0,0,2.8731,2.8731,2.8725,2.8746,2.875,2.875,2.8762,2.8754,2.8761,2.8758,2.8749,2.875,2.8769,2.8769,2.8756,2.879,2.8774,2.8777,2.8789,2.8794,2.8798,2.8797,2.8737,0,0,0,0,0,2.8738,2.8749,2.8748,2.8767,2.8769,2.8765,2.8771,2.8766,2.8769,2.877,2.877,2.8773,2.8782,2.8788,2.8796,2.8819,2.8819,2.883,2.8834,2.8837,2.884,2.8852,2.8857,2.8804,2.8804,2.8804,0,0,2.8752,2.8754,2.8761,2.8771,2.8774,2.8785,2.8767,2.8779,2.8788,2.8772,2.8788,2.8788,2.8792,2.8812,2.8821,2.8813,2.8855,2.884,2.8843,2.8843,2.8855,2.886,2.8865,2.8806,2.8805,2.8805,0,0,2.8784,2.8786,2.8803,2.8806,2.881,2.8807,2.8811,2.8813,2.8813,2.8829,2.8818,2.8827,2.8843,2.8846,2.8849,2.8883,2.8874,2.8886,2.8907,2.8919,2.8923,2.8927,2.8939,2.8944,2.8889,2.8889,2.8889,0,2.8801,2.8818,2.8812,2.8826,2.883,2.8818,2.8834,2.8837,2.8844,2.8847,2.8838,2.8858,2.8859,2.888,2.8889,2.8892,2.8896,2.8886,2.8923,2.8927,2.893,2.8942,2.8947,2.889,2.889,2.889,2.889,0,2.8839,2.8851,2.8864,2.8871,2.8878,2.8893,2.8888,2.8896,2.889,2.8888,2.8906,2.8907,2.8915,2.892,2.8914,2.894,2.8935,2.8925,2.8908,2.8937,2.8948,2.8952,2.8892,2.8892,2.8892,2.8891,0,0,2.8883,2.8888,2.8893,2.8896,2.8901,2.891,2.8924,2.8933,2.8939,2.8944,2.8956,2.897,2.8961,2.8965,2.896,2.897,2.8998,2.8959,2.8959,2.8966,2.9027,2.9035,2.904,2.8992,2.8993,2.8993,2.9027,0,2.8915,2.8941,2.8936,2.8961,2.8972,2.8961,2.8973,2.8977,2.8976,2.8985,2.8984,2.8994,2.8981,2.8983,2.8994,2.8992,2.901,2.899,2.9003,2.9003,2.9002,2.9046,2.9054,2.9086,2.9031,2.9032,2.9032,0,2.8955,2.8963,2.8989,2.8993,2.8997,2.9009,2.9017,2.9026,2.903,2.9029,2.9034,2.9027,2.9041,2.9025,2.9044,2.9031,2.9036,2.9036,2.9037,2.9038,2.902,2.9048,2.9095,2.91,2.9039,2.9038,2.9038,0,2.8985,2.9002,2.902,2.9024,2.9028,2.9036,2.9038,2.9042,2.9048,2.9055,2.9058,2.9067,2.9071,2.9078,2.9073,2.9061,2.9093,2.9076,2.9092,2.9092,2.9099,2.9099,2.9148,2.9103,2.9103,2.9102,2.9102,0,2.9021,2.9038,2.9034,2.9045,2.9063,2.9058,2.9076,2.9076,2.908,2.9091,2.9081,2.9091,2.9084,2.9094,2.909,2.9107,2.9109,2.9108,2.9107,2.9109,2.911,2.9112,2.911,2.9104,2.9103,2.9103,2.9103,0,2.9058,2.9056,2.9075,2.9078,2.9079,2.9092,2.9094,2.9105,2.9103,2.9117,2.912,2.9118,2.9129,2.9125,2.9136,2.9134,2.9156,2.9152,2.9154,2.9153,2.917,2.9168,2.9223,2.9229,2.9179,2.918,2.918,0,2.9081,2.9093,2.9098,2.9105,2.9108,2.9119,2.9126,2.9121,2.9128,2.9134,2.9144,2.9154,2.9162,2.918,2.9179,2.9188,2.9184,2.9202,2.9185,2.9187,2.9184,2.9184,2.9185,2.9206,2.9206,2.9207,2.9207,0,2.9122,2.9121,2.9131,2.914,2.9149,2.9156,2.9162,2.9168,2.9163,2.9172,2.9183,2.919,2.9202,2.9212,2.922,2.9222,2.9214,2.9213,2.9217,2.9219,2.9221,2.922,2.9164,2.9211,2.9211,2.9211,2.921,2.921,2.9153,2.9164,2.9169,2.918,2.9185,2.9191,2.9201,2.9202,2.9212,2.9222,2.9218,2.9232,2.9236,2.9246,2.9249,2.9259,2.9252,2.9258,2.926,2.9261,2.9263,2.9219,2.9261,2.926,2.926,2.926,2.926,0,2.9194,2.9197,2.9208,2.9217,2.9226,2.9219,2.9226,2.9234,2.9246,2.9251,2.9259,2.9273,2.9283,2.9284,2.9293,2.9301,2.9298,2.9304,2.9303,2.9304,2.9269,2.9265,2.9307,2.9307,2.9307,2.9307,2.9307,2.9307,2.9216,2.9235,2.9234,2.9255,2.9258,2.9272,2.9276,2.9282,2.9286,2.9302,2.9311,2.9311,2.9315,2.9324,2.9333,2.9333,2.9337,2.9345,2.9343,2.9311,2.9306,2.9302,2.9298,2.9346,2.9346,2.9377,2.9377,2.9378]}]]